BEIDOU-3 M4 (C28)

Last updated on Jan. 18, 2020, 4:39 a.m. UTC

1 43108U 18003B   20017.83311083 -.00000071  00000-0  00000+0 0  9993
2 43108  55.3211  22.7735 0004992 247.7469 288.9794  1.86232763 13733
UTC
Height (km)
Latitude
Longitude
Inclination
Orbital Period
UTC large
Height (km)
Speed (km/s)
/
Latitude / Longitude
Inclination (degrees)
Orbital Period (minutes)
Azimuth
Elevation
Range (km)
Doppler Factor
iOS Compass Heading
iOS Angle

Next 30 passes for location: Hong Kong

Rise time Rise Azimuth (degrees) Set time Set Azimuth (degrees) Duration Max altitude (degrees)

No matching passes for this satellites